Location: Lynch Observatory
(39.9540°N, 75.1861°W)
Time: 00:32:05
(UTC-04:00)

DOVE 4 - Pass Details

Date: 28 April 2024
Orbit: 582 x 778 km, 97.7° (Epoch: 27 May)

Event Time Altitude Azimuth Distance (km) Brightness Sun altitude
Rises 21:40:29 0° 28° (NNE) 2,963 ? -18.7°
Reaches altitude 10° 21:43:08 10° 45° (NE) 2,084 ? -19.1°
Enters shadow 21:45:09 19° 69° (ENE) 1,613 ? -19.4°
